User: anonymous   Login
Location: Caltech
(34.1382°N, 118.1253°W)
Time: 05:12:41
(UTC-07:00)
Language:

Iridium 15 - Orbit

View from above orbital plane
View from above orbital plane
View from above satellite
View from above satellite

Ground track
Ground track

The orbit data is extracted from the following two-line orbital elements,

1 24869U 97034A   14302.98659610  .00000635  00000-0  21964-3 0  1324
2 24869 086.3986 063.5985 0002353 104.2983 032.2448 14.34208488906142
Epoch (UTC): 29 October 2014 23:40:41
Eccentricity: 0.0002353
inclination: 86.3986°
perigee height: 776 km
apogee height: 779 km
right ascension of ascending node: 63.5985°
argument of perigee: 104.2983°
revolutions per day: 14.34208488
mean anomaly at epoch: 32.2448°
orbit number at epoch: 90614

The dashed part of the orbit path shows where the satellite is in the earth's shadow,  

DLR